Content
SEND FEEDBACK

Daily
Averages
Monthly
Summary
Czech Republic

CESKE BUDEJOVICE, CZECH REPUBLIC


Home > Europe > Czech Republic
Elevation: 1391 feet     Latitude: 48 56N     Longitude: 014 27E

WEATHER
 
SELECT A DAY
Number of Records: 289,386;   Date Range: 7/1/96 - 4/21/13
 
SHARE

PRINT THIS DATA

[ ← Previous Day ]
WEATHER ALMANAC - FEBRUARY 22, 2013
[ Next Day → ]
[ °C ]   °F
Weather ElementAverageHighLow
Temperature24.9 °F28.4 °F (1:20 pm)21.2 °F (7:20 am)
Dewpoint19.9 °F23 °F (5:50 pm)17 °F (1:00 am)
Humidity80.5 %93 % (5:20 am)58 % (1:00 pm)
Barometer29.84 in30.02 in (1:00 am)29.77 in (1:20 pm)
Wind Speed7.4 mph13.8 mph (12:50 am)
Weather ElementAverage
Visibility4.2 mi
Wind DirectionESE (112 °)

Weather ElementTotal
Precipitation---
Heating Degree Days40.2 (Base 65)
Averaged from 55 records on February 22, 2013
WEATHER CONDITIONS BREAKOUT
WIND DIRECTION BREAKOUT
WEATHER BY HOUR - FEBRUARY 22, 2013
[ °C ]   °F
Local TimeTemperatureDewpointHumidityBarometerVisibilityWind DirectionWind SpeedGust SpeedPrecipitationEventsConditions
12:50 AM26.6 °F17.6 °F69 %29.95 in6.2 miENE (70°)13.8 mphOvercast
1:00 AM26.0 °F17.0 °F59 %30.02 in18.0 miENE (70°)13.4 mph
1:20 AM26.6 °F17.6 °F69 %29.95 in6.2 miEast (80°)11.5 mphMostly Cloudy
1:50 AM26.6 °F19.4 °F74 %29.92 in6.2 miEast (90°)9.2 mphSnowLight Snow
2:20 AM24.8 °F19.4 °F80 %29.92 in6.2 miEast (100°)10.4 mphSnowLight Snow
2:50 AM24.8 °F19.4 °F80 %29.92 in6.2 miEast (100°)10.4 mphSnowLight Snow
3:20 AM24.8 °F19.4 °F80 %29.92 in6.2 miEast (100°)8.1 mphSnowLight Snow Grains
3:50 AM24.8 °F17.6 °F74 %29.89 in6.2 miEast (90°)8.1 mphSnowLight Snow
4:00 AM24.0 °F18.0 °F70 %29.98 in6.0 miEast (90°)8.9 mphSnowLight Snow
4:20 AM24.8 °F17.6 °F74 %29.89 in6.2 miEast (80°)9.2 mphSnowLight Snow
4:50 AM23.0 °F19.4 °F86 %29.89 in3.7 miEast (100°)9.2 mphSnowLight Snow
5:20 AM23.0 °F21.2 °F93 %29.89 inEast (80°)8.1 mphSnowSnow
5:50 AM23.0 °F21.2 °F93 %29.86 in3.1 miEast (100°)8.1 mphSnowLight Snow
6:20 AM23.0 °F19.4 °F86 %29.86 in4.3 miESE (110°)10.4 mphSnowLight Snow
6:50 AM23.0 °F19.4 °F86 %29.86 inEast (100°)8.1 mphSnowLight Snow
7:00 AM22.0 °F19.0 °F83 %29.96 in2.0 miEast (100°)8.9 mphSnowLight Snow
7:20 AM21.2 °F19.4 °F93 %29.86 in1.4 miESE (110°)9.2 mphSnowLight Snow
7:50 AM21.2 °F19.4 °F93 %29.86 in1.3 miEast (100°)9.2 mphSnowLight Snow
8:20 AM23.0 °F19.4 °F86 %29.86 in1.4 miEast (90°)8.1 mphSnowLight Snow
8:50 AM23.0 °F19.4 °F86 %29.86 in2.8 miEast (80°)11.5 mphSnowLight Snow
9:20 AM23.0 °F17.6 °F80 %29.86 in3.1 miEast (80°)12.7 mphSnowLight Snow
9:50 AM23.0 °F17.6 °F80 %29.83 in2.8 miEast (80°)10.4 mphSnowLight Snow
10:00 AM23.0 °F18.0 °F75 %29.93 in3.0 miEast (80°)11.2 mphSnowLight Snow
10:20 AM23.0 °F19.4 °F86 %29.83 in3.7 miEast (90°)9.2 mphMostly Cloudy
10:50 AM24.8 °F19.4 °F80 %29.83 in4.3 miEast (90°)8.1 mphMostly Cloudy
11:20 AM24.8 °F19.4 °F80 %29.83 in4.3 miESE (110°)6.9 mphMostly Cloudy
11:50 AM26.6 °F19.4 °F74 %29.83 in5.0 miESE (110°)8.1 mphMostly Cloudy
12:20 PM26.6 °F17.6 °F69 %29.80 in5.0 miESE (110°)9.2 mphMostly Cloudy
12:50 PM26.6 °F17.6 °F69 %29.80 in5.0 miEast (100°)8.1 mphScattered Clouds
1:00 PM27.0 °F18.0 °F58 %29.87 in5.0 miEast (100°)8.9 mphPartly Cloudy
1:20 PM28.4 °F19.4 °F69 %29.77 in5.0 miESE (110°)8.1 mphScattered Clouds
1:50 PM28.4 °F19.4 °F69 %29.77 in5.0 miEast (100°)8.1 mphScattered Clouds
2:20 PM28.4 °F19.4 °F69 %29.77 in5.0 miSE (130°)8.1 mphMostly Cloudy
2:50 PM28.4 °F19.4 °F69 %29.77 in4.3 miESE (110°)6.9 mphMostly Cloudy
3:20 PM28.4 °F19.4 °F69 %29.77 in3.7 miESE (110°)4.6 mphMostly Cloudy
3:50 PM28.4 °F19.4 °F69 %29.77 in4.3 miESE (120°)4.6 mphMostly Cloudy
4:00 PM28.0 °F20.0 °F61 %29.84 in4.0 miESE (120°)4.5 mphSnowLight Snow
4:20 PM28.4 °F19.4 °F69 %29.77 in4.3 miSE (130°)5.8 mphMostly Cloudy
4:50 PM26.6 °F21.2 °F80 %29.77 in3.7 miESE (120°)3.5 mphMostly Cloudy
5:20 PM26.6 °F21.2 °F80 %29.77 in3.1 miESE (110°)4.6 mphSnowLight Snow
5:50 PM26.6 °F23.0 °F86 %29.77 in1.3 miSE (130°)3.5 mphSnowLight Snow
6:20 PM24.8 °F23.0 °F93 %29.77 in2.2 miENE (70°)3.5 mphSnowLight Snow
6:50 PM24.8 °F23.0 °F93 %29.80 inENE (60°)4.6 mphSnowSnow
7:00 PM25.0 °F23.0 °F88 %29.86 in2.0 miENE (60°)4.5 mphSnowSnow
7:20 PM24.8 °F23.0 °F93 %29.80 in1.4 miNE (40°)8.1 mphSnowSnow
7:50 PM24.8 °F23.0 °F93 %29.80 in1.4 miNE (50°)5.8 mphSnowSnow
8:20 PM24.8 °F21.2 °F86 %29.80 inNE (40°)3.5 mphSnowLight Snow
8:50 PM24.8 °F21.2 °F86 %29.77 inNorth (10°)2.3 mphSnowLight Snow
9:20 PM24.8 °F21.2 °F86 %29.77 inVariable1.2 mphSnowLight Snow
9:50 PM23.0 °F21.2 °F93 %29.77 inWNW (290°)4.6 mphSnowLight Snow
10:00 PM23.0 °F22.0 °F92 %29.86 in2.0 miWNW (290°)4.5 mphSnowLight Snow
10:20 PM23.0 °F21.2 °F93 %29.77 inWNW (300°)3.5 mphSnowLight Snow
10:50 PM23.0 °F21.2 °F93 %29.77 in3.1 miWNW (290°)3.5 mphSnowLight Snow
11:20 PM23.0 °F21.2 °F93 %29.77 in3.1 miWest (280°)3.5 mphSnowLight Snow
11:50 PM23.0 °F21.2 °F93 %29.77 in3.7 miWNW (300°)2.3 mphSnowLight Snow
Hourly data recorded from LOLF, located miles away from Ceske Budejovice, Czech Republic







STORIES FROM OUR PARTNERS